This is the latest recevied weather packets stored in our database for station/object WA6ODQ-13. If no packets are shown the sender has not sent any weather packets the latest 10 day(s).
| Time | Temp. | Humidity | Pressure | Rain* | Wind** | Luminosity | Snow |
|---|---|---|---|---|---|---|---|
| 1788383831 | 24.44° C | 57% | 1015.1 hPa | 0 mm | - | 504 W/m² | - |
| 1788383526 | 23.89° C | 56% | 1015.2 hPa | 0 mm | - | 553 W/m² | - |
| 1788383220 | 25° C | 57% | 1015.2 hPa | 0 mm | - | 741 W/m² | - |
| 1788382915 | 24.44° C | 58% | 1015.3 hPa | 0 mm | - | 658 W/m² | - |
| 1788382614 | 24.44° C | 56% | 1015.1 hPa | 0 mm | - | 605 W/m² | - |
| 1788382309 | 24.44° C | 56% | 1015.1 hPa | 0 mm | - | 752 W/m² | - |
| 1788382004 | 23.89° C | 58% | 1015 hPa | 0 mm | - | 775 W/m² | - |
| 1788381698 | 23.89° C | 59% | 1015.2 hPa | 0 mm | - | 634 W/m² | - |
| 1788381394 | 23.33° C | 61% | 1015.4 hPa | 0 mm | - | 507 W/m² | - |
| 1788381088 | 22.78° C | 62% | 1015.4 hPa | 0 mm | - | 524 W/m² | - |
| 1788380798 | 22.78° C | 63% | 1015.6 hPa | 0 mm | - | 533 W/m² | - |
| 1788380480 | 22.78° C | 62% | 1015.3 hPa | 0 mm | - | 422 W/m² | - |
| 1788380176 | 22.22° C | 63% | 1015.7 hPa | 0 mm | - | 422 W/m² | - |
| 1788379874 | 22.78° C | 64% | 1015.8 hPa | 0 mm | - | 393 W/m² | - |
| 1788379569 | 22.78° C | 64% | 1015.7 hPa | 0 mm | - | 384 W/m² | - |
| 1788379261 | 22.78° C | 62% | 1015.5 hPa | 0 mm | - | 783 W/m² | - |
| 1788378956 | 22.78° C | 65% | 1015.7 hPa | 0 mm | - | 635 W/m² | - |
| 1788378654 | 22.78° C | 64% | 1015.9 hPa | 0 mm | - | 501 W/m² | - |
| 1788378348 | 22.22° C | 66% | 1015.8 hPa | 0 mm | - | 523 W/m² | - |
| 1788378044 | 22.22° C | 65% | 1016 hPa | 0 mm | - | 305 W/m² | - |
| 1788377740 | 22.22° C | 67% | 1016.1 hPa | 0 mm | - | 698 W/m² | - |
| 1788377439 | 22.22° C | 66% | 1016.2 hPa | 0 mm | - | 683 W/m² | - |
| 1788377138 | 22.78° C | 66% | 1016.3 hPa | 0 mm | - | 694 W/m² | - |
| 1788376836 | 21.67° C | 67% | 1016.1 hPa | 0 mm | - | 731 W/m² | - |
| 1788376531 | 21.67° C | 68% | 1016 hPa | 0 mm | - | 433 W/m² | - |
* Rain latest hour (hover to see other rain measurements)
** Current wind speed in m/s (hover to see current wind gust speed)